| time (UTC) | temp C | wind direction | speed KPH | gust KPH | rain 1hr cm | rain 24hr cm | rain mn cm | humidity % | barometer mb |
| 20260504024539 | 22 | 195 | 12.9 | 24.1 | 0.00 | 0.00 | 0.00 | 30 | 1002.9 |
| 20260504023039 | 23 | 186 | 12.9 | 33.8 | 0.00 | 0.00 | 0.00 | 28 | 1002.8 |
| 20260504021537 | 23 | 199 | 11.3 | 27.4 | 0.00 | 0.00 | 0.00 | 28 | 1002.7 |
| 20260504020057 | 24 | 174 | 11.3 | 24.1 | 0.00 | 0.00 | 0.00 | 27 | 1002.6 |
| 20260504014553 | 24 | 180 | 11.3 | 20.9 | 0.00 | 0.00 | 0.00 | 26 | 1002.5 |
| 20260504013044 | 25 | 219 | 9.7 | 24.1 | 0.00 | 0.00 | 0.00 | 24 | 1002.5 |
| 20260504011536 | 26 | 207 | 9.7 | 20.9 | 0.00 | 0.00 | 0.00 | 24 | 1002.4 |
| 20260504010040 | 26 | 214 | 12.9 | 30.6 | 0.00 | 0.00 | 0.00 | 24 | 1002.5 |
| 20260504004543 | 26 | 205 | 12.9 | 27.4 | 0.00 | 0.00 | 0.00 | 23 | 1002.5 |
| 20260504003034 | 26 | 181 | 14.5 | 29.0 | 0.00 | 0.00 | 0.00 | 23 | 1002.6 |
| 20260504001541 | 27 | 177 | 16.1 | 37.0 | 0.00 | 0.00 | 0.00 | 22 | 1002.6 |
| 20260504000032 | 27 | 232 | 12.9 | 25.7 | 0.00 | 0.00 | 0.00 | 20 | 1002.7 |
| 20260503234529 | 27 | 180 | 11.3 | 30.6 | 0.00 | 0.00 | 0.00 | 19 | 1002.9 |
| 20260503233027 | 28 | 219 | 20.9 | 33.8 | 0.00 | 0.00 | 0.00 | 19 | 1003.1 |
| 20260503231526 | 27 | 200 | 12.9 | 38.6 | 0.00 | 0.00 | 0.00 | 20 | 1003.3 |
| 20260503230025 | 27 | 226 | 14.5 | 32.2 | 0.00 | 0.00 | 0.00 | 20 | 1003.5 |
| 20260503224522 | 27 | 230 | 9.7 | 29.0 | 0.00 | 0.00 | 0.00 | 22 | 1003.7 |
| 20260503223022 | 27 | 226 | 14.5 | 25.7 | 0.00 | 0.00 | 0.00 | 20 | 1003.9 |
| 20260503221519 | 27 | 188 | 16.1 | 32.2 | 0.00 | 0.00 | 0.00 | 20 | 1004.1 |
| 20260503220017 | 27 | 216 | 17.7 | 32.2 | 0.00 | 0.00 | 0.00 | 20 | 1004.5 |
| 20260503214518 | 28 | 232 | 14.5 | 33.8 | 0.00 | 0.00 | 0.00 | 20 | 1004.7 |
| 20260503213012 | 27 | 209 | 16.1 | 35.4 | 0.00 | 0.00 | 0.00 | 20 | 1004.9 |
| 20260503211510 | 27 | 184 | 14.5 | 37.0 | 0.00 | 0.00 | 0.00 | 21 | 1005.4 |
| 20260503210007 | 27 | 225 | 16.1 | 40.2 | 0.00 | 0.00 | 0.00 | 21 | 1005.9 |
| 20260503204503 | 27 | 227 | 11.3 | 37.0 | 0.00 | 0.00 | 0.00 | 20 | 1006.2 |
| 20260503203003 | 27 | 267 | 16.1 | 37.0 | 0.00 | 0.00 | 0.00 | 21 | 1006.7 |
| 20260503201558 | 27 | 235 | 12.9 | 33.8 | 0.00 | 0.00 | 0.00 | 22 | 1006.8 |
| 20260503200056 | 27 | 236 | 17.7 | 35.4 | 0.00 | 0.00 | 0.00 | 22 | 1007.1 |
| 20260503194554 | 27 | 250 | 12.9 | 30.6 | 0.00 | 0.00 | 0.00 | 22 | 1007.4 |
| 20260503193049 | 26 | 242 | 19.3 | 33.8 | 0.00 | 0.00 | 0.00 | 22 | 1007.8 |
| 20260503191548 | 25 | 220 | 11.3 | 32.2 | 0.00 | 0.00 | 0.00 | 24 | 1007.9 |
| 20260503190054 | 25 | 192 | 14.5 | 33.8 | 0.00 | 0.00 | 0.00 | 24 | 1008.3 |
| 20260503184541 | 25 | 215 | 16.1 | 29.0 | 0.00 | 0.00 | 0.00 | 24 | 1008.6 |
| 20260503183039 | 25 | 205 | 12.9 | 37.0 | 0.00 | 0.00 | 0.00 | 25 | 1009.0 |
| 20260503181536 | 25 | 221 | 14.5 | 33.8 | 0.00 | 0.00 | 0.00 | 26 | 1009.3 |
| 20260503180036 | 25 | 223 | 19.3 | 46.7 | 0.00 | 0.00 | 0.00 | 25 | 1009.7 |
| 20260503174532 | 24 | 247 | 25.7 | 40.2 | 0.00 | 0.00 | 0.00 | 24 | 1010.2 |
| 20260503173028 | 24 | 252 | 14.5 | 35.4 | 0.00 | 0.00 | 0.00 | 25 | 1010.5 |
| 20260503171524 | 23 | 212 | 16.1 | 30.6 | 0.00 | 0.00 | 0.00 | 25 | 1010.9 |
| 20260503081519 | 10 | 223 | 0.0 | 1.6 | 0.00 | 0.00 | 0.00 | 62 | 1012.4 |
| 20260503071601 | 11 | 91 | 1.6 | 9.7 | 0.00 | 0.00 | 0.00 | 57 | 1012.6 |
| 20260503060109 | 13 | 98 | 11.3 | 20.9 | 0.00 | 0.00 | 0.00 | 50 | 1013.0 |
| 20260503054555 | 13 | 101 | 11.3 | 19.3 | 0.00 | 0.00 | 0.00 | 48 | 1013.1 |
| 20260503053041 | 14 | 96 | 6.4 | 16.1 | 0.00 | 0.00 | 0.00 | 47 | 1013.1 |
| 20260503051532 | 15 | 145 | 8.0 | 20.9 | 0.00 | 0.00 | 0.00 | 46 | 1013.1 |
| 20260503050030 | 15 | 99 | 11.3 | 19.3 | 0.00 | 0.00 | 0.00 | 45 | 1013.1 |
| 20260503044529 | 15 | 85 | 6.4 | 17.7 | 0.00 | 0.00 | 0.00 | 44 | 1013.1 |
| 20260503043029 | 15 | 91 | 6.4 | 17.7 | 0.00 | 0.00 | 0.00 | 43 | 1013.1 |
| 20260503041529 | 15 | 63 | 8.0 | 16.1 | 0.00 | 0.00 | 0.00 | 43 | 1013.2 |
| 20260503040035 | 15 | 102 | 9.7 | 16.1 | 0.00 | 0.00 | 0.00 | 42 | 1013.1 |
| 20260503034527 | 16 | 62 | 8.0 | 17.7 | 0.00 | 0.00 | 0.00 | 40 | 1013.1 |
| 20260503033030 | 16 | 87 | 6.4 | 14.5 | 0.00 | 0.00 | 0.00 | 40 | 1013.2 |
| 20260503031526 | 16 | 86 | 6.4 | 9.7 | 0.00 | 0.00 | 0.00 | 37 | 1013.1 |
| 20260503030027 | 17 | 88 | 4.8 | 12.9 | 0.00 | 0.00 | 0.00 | 35 | 1012.9 |